Temp
-8 -8 -8 -8 -8 -8 -8 -8 -8 -8 -8 -8 -8 -7 -7 -7 -8 -8 -7 -7 -7 -7 -6 -6 -6 -7 -7 -7 -6 -7 -6 -6 -6 -6 -5 -5 -5 -6 -6 -6 -6 -6
-8 -8 -8 -8 -8 -8 -8 -8 -8 -8 -8 -8 -8 -8 -8 -7 -7 -8 -8 -8 -7 -7 -7 -7 -7 -7 -7 -7 -7 -7 -6 -6 -6 -6 -6 -5 -5 -6 -6 -6 -6 -6
-8 -8 -8 -8 -8 -8 -8 -8 -8 -8 -8 -8 -8 -8 -8 -8 -7 -7 -8 -8 -8 -8 -7 -7 -7 -7 -7 -7 -6 -6 -6 -6 -6 -6 -6 -6 -5 -6 -6 -6 -6 -6
-8 -8 -8 -8 -8 -8 -8 -8 -8 -8 -8 -8 -8 -8 -8 -8 -7 -7 -7 -8 -8 -8 -8 -8 -7 -7 -7 -7 -7 -7 -7 -6 -6 -6 -6 -6 -6 -6 -6 -6 -6 -6
-8 -8 -8 -7 -7 -7 -7 -7 -7 -7 -8 -8 -8 -8 -7 -8 -8 -7 -7 -7 -8 -8 -8 -8 -8 -7 -7 -7 -7 -7 -7 -7 -6 -6 -7 -6 -6 -6 -6 -6 -6 -6
-8 -7 -7 -7 -7 -7 -7 -7 -7 -7 -7 -7 -7 -7 -7 -7 -7 -8 -8 -7 -7 -8 -8 -8 -8 -8 -7 -7 -7 -7 -7 -7 -7 -7 -7 -7 -6 -6 -6 -6 -6 -6
-7 -7 -7 -7 -7 -7 -7 -7 -7 -7 -7 -7 -7 -7 -7 -7 -7 -7 -7 -8 -8 -8 -8 -8 -8 -8 -8 -7 -7 -7 -7 -7 -7 -7 -7 -7 -7 -6 -6 -6 -6 -6
-7 -7 -7 -7 -7 -7 -6 -7 -7 -7 -7 -7 -7 -7 -7 -7 -7 -7 -7 -8 -8 -8 -8 -8 -8 -8 -8 -8 -8 -7 -7 -7 -7 -7 -7 -7 -7 -7 -6 -6 -6 -6
-7 -8 -8 -8 -8 -8 -7 -7 -7 -7 -7 -7 -7 -7 -7 -7 -7 -7 -7 -7 -8 -8 -8 -8 -8 -8 -8 -8 -8 -8 -8 -8 -7 -7 -7 -7 -7 -7 -6 -6 -6 -6
-8 -9 -9 -8 -8 -8 -8 -8 -8 -7 -7 -7 -7 -7 -7 -7 -7 -8 -8 -8 -8 -8 -8 -8 -8 -7 -7 -8 -8 -8 -8 -8 -7 -7 -7 -7 -7 -7 -6 -6 -6 -7
-8 -9 -9 -8 -8 -7 -8 -8 -8 -8 -8 -8 -8 -7 -7 -7 -7 -7 -8 -8 -8 -7 -7 -7 -7 -7 -7 -7 -7 -7 -8 -8 -7 -7 -7 -7 -7 -7 -7 -7 -7 -7
-8 -8 -8 -8 -8 -7 -7 -7 -8 -8 -8 -8 -8 -8 -8 -8 -8 -7 -7 -7 -7 -7 -7 -7 -7 -7 -7 -7 -7 -7 -7 -7 -7 -7 -7 -7 -7 -7 -7 -7 -7 -7
-8 -8 -8 -8 -8 -7 -7 -8 -8 -8 -8 -8 -7 -7 -7 -8 -8 -7 -7 -7 -7 -7 -7 -7 -7 -7 -7 -7 -7 -7 -7 -7 -7 -7 -7 -7 -7 -7 -7 -7 -7 -7
-8 -8 -8 -8 -8 -7 -7 -8 -8 -8 -8 -8 -7 -7 -7 -7 -7 -7 -7 -7 -7 -7 -8 -8 -8 -8 -8 -8 -8 -8 -8 -8 -8 -8 -7 -7 -7 -7 -7 -7 -7 -7
-8 -8 -8 -8 -8 -8 -8 -8 -8 -8 -8 -8 -7 -7 -7 -7 -7 -7 -8 -8 -8 -9 -9 -9 -9 -8 -8 -9 -9 -9 -8 -8 -8 -8 -8 -8 -8 -7 -7 -7 -7 -7
-8 -8 -8 -8 -8 -8 -8 -8 -8 -8 -8 -8 -8 -7 -7 -7 -7 -8 -8 -9 -9 -9 -9 -9 -8 -8 -8 -8 -8 -8 -8 -8 -8 -8 -8 -8 -8 -8 -8 -7 -7 -7
-8 -8 -8 -8 -8 -8 -8 -8 -8 -8 -8 -8 -8 -8 -7 -7 -7 -8 -8 -9 -9 -9 -8 -8 -8 -8 -8 -8 -8 -8 -8 -8 -8 -8 -8 -8 -8 -8 -8 -8 -8 -8
-8 -8 -8 -8 -8 -8 -8 -8 -8 -8 -8 -8 -8 -8 -8 -7 -7 -8 -9 -9 -9 -9 -8 -8 -8 -8 -8 -8 -8 -8 -8 -8 -8 -8 -8 -8 -8 -8 -8 -8 -8 -8
-8 -8 -8 -8 -8 -8 -8 -8 -8 -8 -8 -8 -8 -8 -8 -8 -8 -8 -9 -9 -9 -9 -9 -8 -8 -8 -8 -8 -8 -8 -8 -8 -8 -8 -8 -8 -8 -8 -8 -8 -7 -8
-8 -8 -8 -8 -8 -8 -8 -8 -8 -8 -8 -8 -8 -8 -8 -8 -8 -8 -9 -9 -9 -9 -9 -8 -8 -8 -8 -8 -8 -8 -8 -8 -8 -8 -8 -8 -8 -8 -8 -8 -8 -8
-8 -8 -8 -8 -8 -8 -8 -8 -8 -8 -8 -8 -8 -8 -8 -8 -8 -8 -8 -9 -9 -9 -9 -9 -8 -8 -8 -8 -8 -8 -8 -8 -8 -8 -8 -8 -8 -8 -8 -8 -8 -8
-8 -8 -8 -8 -8 -8 -8 -8 -8 -8 -8 -8 -8 -8 -8 -8 -8 -8 -8 -8 -8 -8 -9 -9 -8 -8 -8 -8 -8 -8 -8 -8 -8 -8 -8 -8 -8 -8 -8 -8 -8 -8
-9 -9 -8 -8 -8 -8 -8 -8 -8 -8 -8 -8 -8 -8 -8 -8 -8 -8 -8 -8 -8 -8 -9 -9 -9 -8 -8 -8 -8 -8 -8 -8 -8 -8 -8 -8 -8 -8 -8 -8 -8 -8
-9 -9 -9 -9 -9 -8 -8 -8 -8 -8 -8 -8 -8 -8 -8 -8 -8 -8 -8 -8 -8 -9 -9 -9 -9 -9 -8 -8 -8 -8 -8 -8 -8 -8 -8 -8 -8 -8 -8 -8 -8 -8
-9 -9 -9 -9 -9 -9 -9 -9 -9 -9 -9 -8 -8 -8 -9 -9 -8 -8 -8 -9 -9 -9 -9 -9 -9 -9 -9 -8 -8 -8 -8 -8 -8 -8 -8 -8 -8 -8 -8 -8 -8 -8
-10 -9 -9 -9 -9 -9 -9 -9 -9 -9 -9 -9 -8 -8 -8 -9 -9 -9 -9 -9 -9 -9 -9 -9 -9 -9 -9 -9 -8 -8 -8 -8 -8 -8 -8 -8 -8 -8 -8 -8 -8 -8
Height
5886 5886 5884 5883 5882 5880 5879 5879 5878 5877 5876 5875 5874 5873 5873 5873 5873 5875 5877 5878 5879 5879 5878 5878 5877 5878 5880 5881 5882 5883 5884 5884 5885 5886 5886 5887 5888 5889 5891 5892 5893 5895
5886 5885 5884 5883 5882 5881 5880 5879 5878 5877 5875 5874 5872 5871 5870 5870 5870 5871 5873 5875 5875 5876 5876 5876 5876 5876 5878 5879 5880 5880 5881 5882 5883 5884 5885 5885 5886 5887 5888 5890 5891 5892
5886 5885 5884 5883 5882 5881 5880 5879 5877 5876 5874 5873 5872 5870 5869 5868 5868 5869 5870 5871 5872 5872 5872 5873 5874 5874 5875 5876 5877 5878 5878 5879 5880 5882 5883 5884 5885 5885 5886 5887 5889 5890
5886 5885 5884 5883 5881 5880 5879 5878 5876 5875 5873 5872 5871 5869 5868 5867 5866 5866 5868 5869 5869 5869 5869 5870 5871 5873 5874 5875 5876 5876 5876 5876 5877 5879 5881 5882 5883 5884 5884 5884 5886 5888
5884 5883 5882 5881 5880 5878 5877 5876 5875 5873 5872 5871 5869 5868 5867 5865 5864 5864 5865 5866 5866 5866 5867 5867 5869 5871 5872 5872 5873 5873 5874 5874 5875 5876 5878 5879 5880 5881 5882 5882 5883 5885
5882 5880 5879 5878 5877 5876 5875 5874 5873 5872 5871 5869 5868 5867 5865 5864 5863 5862 5862 5862 5863 5864 5864 5865 5866 5868 5868 5869 5870 5870 5871 5872 5873 5874 5875 5875 5877 5879 5879 5880 5881 5882
5879 5876 5874 5873 5872 5872 5872 5871 5870 5869 5869 5868 5866 5865 5864 5862 5861 5860 5860 5860 5860 5860 5861 5862 5863 5865 5865 5865 5866 5867 5868 5869 5870 5872 5872 5872 5874 5876 5877 5878 5880 5880
5873 5871 5870 5869 5869 5869 5868 5867 5867 5866 5866 5865 5864 5863 5862 5861 5860 5859 5858 5858 5858 5858 5858 5859 5860 5861 5862 5862 5862 5864 5865 5867 5868 5869 5870 5870 5871 5873 5874 5876 5877 5878
5870 5871 5870 5869 5868 5868 5866 5865 5864 5863 5862 5861 5861 5861 5860 5859 5858 5857 5856 5856 5856 5855 5855 5855 5856 5857 5858 5858 5858 5859 5860 5862 5864 5865 5867 5868 5869 5871 5872 5873 5874 5874
5869 5871 5871 5869 5867 5866 5864 5863 5862 5860 5859 5858 5858 5858 5858 5857 5856 5856 5855 5854 5853 5853 5853 5853 5853 5854 5854 5854 5854 5854 5854 5856 5858 5861 5863 5864 5866 5867 5868 5870 5870 5871
5866 5869 5871 5869 5866 5863 5861 5860 5860 5860 5859 5858 5857 5856 5856 5855 5854 5853 5853 5852 5851 5850 5850 5850 5850 5850 5851 5850 5850 5849 5850 5850 5852 5854 5857 5859 5861 5862 5864 5865 5866 5867
5861 5862 5865 5866 5863 5860 5857 5856 5857 5858 5858 5857 5856 5855 5854 5853 5852 5851 5850 5849 5849 5848 5847 5847 5847 5848 5847 5847 5847 5847 5846 5847 5848 5849 5850 5853 5855 5857 5859 5860 5862 5863
5859 5857 5858 5859 5859 5857 5854 5853 5854 5855 5854 5852 5851 5852 5852 5851 5850 5848 5847 5846 5845 5845 5845 5845 5845 5846 5846 5845 5845 5845 5845 5845 5845 5846 5847 5849 5850 5852 5854 5855 5857 5860
5856 5855 5855 5855 5854 5853 5852 5851 5850 5850 5849 5848 5847 5847 5849 5849 5847 5845 5844 5843 5842 5842 5843 5843 5843 5843 5843 5843 5842 5842 5842 5842 5843 5844 5845 5846 5847 5849 5850 5851 5853 5855
5853 5851 5851 5851 5851 5850 5849 5848 5847 5846 5845 5845 5844 5844 5844 5844 5842 5840 5841 5841 5841 5841 5840 5840 5840 5840 5840 5840 5839 5838 5837 5837 5839 5840 5842 5843 5844 5846 5847 5848 5850 5851
5850 5848 5847 5847 5847 5846 5845 5844 5843 5842 5842 5842 5842 5841 5840 5839 5837 5837 5840 5841 5841 5840 5839 5838 5837 5837 5837 5837 5836 5835 5834 5834 5834 5835 5837 5838 5839 5841 5843 5845 5846 5848
5847 5845 5843 5842 5842 5841 5840 5839 5839 5838 5838 5838 5838 5837 5836 5835 5833 5834 5837 5838 5837 5836 5836 5836 5835 5834 5834 5834 5833 5832 5832 5832 5832 5832 5833 5833 5834 5836 5837 5839 5841 5843
5841 5840 5838 5837 5836 5836 5835 5834 5834 5834 5834 5834 5834 5833 5833 5831 5829 5830 5832 5834 5833 5833 5832 5831 5831 5830 5830 5830 5830 5829 5830 5830 5831 5831 5831 5830 5831 5832 5833 5834 5835 5837
5834 5833 5832 5831 5830 5830 5829 5829 5828 5828 5829 5829 5829 5829 5828 5827 5826 5826 5827 5829 5830 5829 5828 5827 5827 5827 5827 5826 5826 5826 5827 5827 5827 5828 5828 5828 5828 5829 5830 5831 5831 5832
5827 5827 5826 5825 5824 5823 5823 5823 5823 5823 5823 5823 5823 5823 5824 5823 5822 5821 5822 5824 5825 5825 5824 5823 5823 5823 5823 5823 5822 5822 5823 5823 5823 5822 5823 5824 5824 5825 5826 5827 5828 5829
5821 5821 5820 5819 5818 5818 5817 5817 5818 5817 5817 5817 5817 5817 5818 5818 5817 5816 5817 5818 5820 5820 5819 5819 5818 5818 5819 5819 5818 5818 5818 5819 5819 5818 5819 5819 5820 5821 5822 5823 5824 5826
5816 5815 5815 5814 5813 5813 5812 5812 5812 5812 5812 5812 5812 5811 5812 5812 5812 5812 5812 5813 5814 5814 5814 5813 5813 5813 5814 5814 5814 5814 5815 5815 5815 5815 5815 5816 5816 5817 5818 5819 5820 5822
5810 5810 5809 5809 5808 5808 5807 5807 5807 5807 5807 5807 5807 5806 5806 5805 5806 5807 5808 5808 5808 5808 5809 5808 5807 5808 5809 5809 5809 5810 5811 5811 5811 5812 5812 5812 5812 5813 5814 5815 5816 5817
5805 5804 5804 5803 5803 5802 5802 5802 5802 5802 5802 5802 5802 5801 5801 5800 5800 5802 5803 5804 5804 5803 5803 5803 5802 5802 5803 5804 5804 5805 5806 5807 5807 5807 5807 5808 5808 5808 5809 5811 5812 5812
5800 5799 5798 5798 5797 5797 5796 5796 5796 5796 5796 5796 5796 5796 5795 5794 5794 5795 5797 5798 5799 5798 5798 5797 5796 5796 5797 5799 5799 5800 5801 5802 5803 5803 5803 5803 5803 5804 5805 5806 5807 5807
5794 5794 5793 5792 5792 5791 5790 5790 5790 5790 5790 5789 5789 5789 5789 5789 5788 5789 5790 5791 5792 5793 5793 5792 5791 5790 5790 5792 5794 5795 5796 5797 5798 5798 5798 5798 5799 5799 5801 5801 5802 5802
Wind_Speed
7 8 10 11 11 10 10 10 10 11 11 11 12 12 13 14 19 25 26 25 24 22 24 27 28 26 26 27 27 26 26 27 27 26 25 26 26 26 26 25 25 24
7 8 9 10 11 11 11 11 11 11 10 10 10 12 13 14 16 20 22 23 24 24 24 27 27 26 26 27 27 27 27 28 28 27 26 26 26 27 27 27 27 26
7 8 8 8 9 9 10 11 11 11 11 11 10 11 12 14 15 17 19 21 23 24 23 24 26 26 27 28 28 28 28 29 29 28 27 27 27 27 29 29 28 27
9 9 9 9 8 8 8 8 9 9 10 11 12 11 12 13 15 15 18 21 23 23 22 22 25 26 27 28 27 27 28 30 30 29 29 29 28 28 30 30 30 29
10 10 10 10 10 10 9 8 8 8 9 10 11 12 12 12 13 14 16 21 24 24 23 23 24 26 27 28 28 28 29 30 31 31 31 31 31 30 30 31 30 30
11 13 13 13 13 13 12 10 9 8 8 9 9 11 11 11 12 12 14 19 24 26 25 24 24 24 25 27 28 29 30 31 32 32 32 33 33 32 32 31 31 31
12 14 15 15 15 15 14 12 11 10 9 9 9 10 11 10 11 11 12 15 21 24 26 26 25 24 24 26 28 29 30 32 32 32 33 35 35 34 33 32 31 32
16 16 16 16 16 16 16 15 13 12 11 10 10 10 11 11 10 10 11 12 16 21 25 26 27 27 26 26 28 29 31 33 33 33 34 36 36 35 35 33 32 33
19 17 18 19 19 19 19 18 17 16 15 13 11 10 11 11 11 10 9 10 12 16 21 26 29 30 30 29 28 29 30 32 34 34 34 36 37 37 38 36 34 34
19 18 20 22 22 23 22 21 20 18 17 15 14 12 11 11 12 11 9 9 10 12 16 22 27 31 33 32 31 30 30 31 32 33 34 35 37 39 40 38 36 35
22 21 19 19 22 25 25 25 23 20 18 16 15 15 14 13 13 12 11 10 11 11 13 17 23 28 32 33 33 32 32 32 32 33 34 35 37 40 42 41 38 37
26 25 20 18 20 23 25 25 25 24 23 20 17 17 17 16 15 15 14 13 13 13 14 15 19 23 27 31 33 34 34 34 33 34 35 36 38 41 43 44 42 39
26 26 24 22 21 22 23 24 25 25 25 23 19 18 18 18 18 18 18 17 16 15 15 15 16 18 21 24 28 32 35 36 35 35 36 36 37 39 42 45 45 43
26 26 25 24 24 24 25 25 25 26 26 25 22 21 20 20 21 22 22 21 19 18 17 16 16 16 16 18 21 26 31 35 36 37 37 36 36 37 41 45 47 46
27 28 27 26 26 26 26 26 26 26 26 26 25 24 22 22 24 25 23 22 20 18 18 18 17 17 16 16 18 21 26 31 34 36 37 37 36 36 38 43 47 48
27 28 29 28 27 27 28 28 27 26 26 26 25 25 24 25 26 25 22 21 20 20 19 20 20 20 19 18 20 22 23 26 30 34 37 38 37 36 36 38 43 46
27 29 30 29 28 28 28 29 29 29 28 27 26 26 25 26 28 26 22 20 22 22 22 22 23 23 23 23 23 23 23 23 25 28 33 38 39 37 35 36 38 41
28 29 31 31 30 30 30 30 30 30 30 30 29 28 27 28 29 28 24 21 22 23 23 24 24 24 24 25 25 24 24 23 23 23 25 32 37 39 38 37 37 38
31 30 31 32 31 30 31 31 32 32 31 32 32 32 31 30 31 31 28 24 22 23 24 25 26 25 24 24 24 24 23 23 24 23 23 25 31 38 40 40 39 39
33 32 32 32 32 31 30 30 31 32 32 33 33 33 33 33 33 34 32 28 26 25 26 27 28 27 26 25 24 23 23 23 25 25 25 24 26 31 36 39 40 40
32 32 32 31 32 31 30 29 29 30 32 33 34 34 34 34 35 37 37 34 32 30 30 30 31 30 28 28 27 25 25 24 25 26 27 26 26 26 29 32 36 38
31 31 31 31 31 31 30 30 28 28 30 31 32 33 34 35 36 37 38 38 36 35 34 34 34 33 32 31 29 27 26 26 26 26 27 28 27 25 26 27 30 33
32 31 31 31 31 31 31 31 30 29 29 30 31 32 33 35 36 36 37 38 38 37 36 36 36 36 35 34 32 29 28 28 28 28 28 28 28 27 26 26 27 29
32 32 32 32 32 33 33 33 32 32 31 31 32 32 33 35 36 34 33 34 36 37 37 37 38 38 37 36 35 32 30 29 28 28 28 28 28 29 28 26 26 26
33 33 33 33 34 34 34 34 34 34 34 33 33 34 34 36 36 35 33 32 33 34 36 37 38 39 38 37 36 35 32 30 29 28 27 27 28 29 29 27 25 25
34 34 34 34 35 35 36 36 36 36 36 36 36 36 37 37 37 36 35 34 33 33 34 35 36 38 39 38 37 36 34 32 31 30 29 29 28 28 28 27 26 26
Wind_Direction
14 8 8 13 13 8 4 2 3 0 352 340 323 306 287 262 244 236 234 233 231 231 230 227 226 225 225 227 226 224 221 218 218 216 212 210 209 209 213 212 207 207
359 3 7 10 10 7 2 359 0 2 356 344 328 312 298 279 256 239 235 236 232 233 234 232 229 228 229 230 228 226 223 220 221 220 217 214 211 210 213 215 213 209
344 347 353 358 360 1 4 0 357 357 353 346 336 320 305 290 271 249 239 237 235 241 244 238 233 230 228 229 229 227 224 221 222 223 222 220 216 213 214 215 216 214
329 332 336 341 343 345 350 350 349 348 344 343 342 333 319 301 284 265 248 239 238 246 251 244 238 235 232 231 230 229 227 224 222 222 223 223 221 218 217 216 216 217
306 308 312 319 324 327 325 325 329 332 332 334 337 337 332 316 300 283 261 247 242 245 249 246 243 239 236 235 233 232 232 230 227 223 222 224 224 222 221 218 216 217
298 294 293 295 299 306 308 309 309 313 320 324 324 327 329 326 317 300 275 255 247 245 246 246 245 243 241 239 238 235 234 234 232 227 224 224 225 225 223 221 219 218
296 288 284 281 282 286 291 295 296 298 305 311 314 314 316 321 323 318 297 268 251 246 244 243 242 243 243 242 242 241 238 236 234 230 227 226 226 226 225 223 222 222
284 280 280 282 283 279 277 278 281 287 292 296 301 304 306 310 314 319 314 289 264 250 244 241 239 239 241 242 242 242 241 238 235 232 230 230 229 227 225 224 224 224
284 287 292 295 298 293 285 278 273 274 278 281 287 291 294 299 301 305 309 302 285 264 251 244 239 236 237 240 240 238 238 238 236 234 233 233 233 231 227 225 225 225
288 296 299 295 293 294 293 288 280 274 272 273 277 280 283 289 291 291 292 294 291 279 264 252 244 239 236 237 239 237 236 235 234 234 234 235 235 234 231 228 226 227
291 297 299 290 283 284 287 289 287 286 285 282 280 281 282 284 284 281 281 284 284 280 273 262 252 246 241 239 240 240 238 235 232 231 232 233 233 232 232 230 228 227
290 295 297 288 282 282 283 285 288 288 286 284 283 284 282 281 280 277 275 278 278 276 275 271 263 257 252 247 244 244 243 239 235 231 231 233 233 232 232 231 230 228
285 289 291 288 285 285 285 285 284 282 281 282 283 282 279 276 275 274 273 274 275 273 272 271 269 268 267 261 255 252 250 246 240 236 235 235 235 234 234 232 230 228
285 285 284 283 283 283 283 284 281 279 282 287 287 281 275 272 270 269 267 267 269 269 267 265 267 270 275 275 269 261 255 251 247 241 239 239 239 238 236 233 229 227
285 283 282 279 278 278 279 280 280 279 280 283 284 281 274 269 267 265 263 265 270 272 269 266 267 269 271 274 275 269 258 251 248 243 240 240 240 239 237 234 231 229
281 281 280 278 276 275 275 276 276 276 275 275 277 277 273 268 267 266 265 269 274 275 272 271 272 274 273 269 269 271 266 255 247 242 239 237 237 237 236 235 234 232
276 276 276 276 275 273 272 272 272 272 271 271 271 273 272 269 267 267 266 266 269 270 269 270 274 278 278 272 266 267 270 266 256 248 242 238 236 235 234 235 235 235
277 275 275 275 274 273 272 271 271 270 269 268 268 268 269 268 266 266 265 262 263 267 267 267 269 274 278 278 273 271 273 274 271 266 258 248 242 238 236 234 235 237
285 283 281 279 277 275 273 272 271 270 269 267 266 265 265 265 264 264 263 261 261 263 265 266 268 272 276 277 276 274 274 276 275 273 269 260 249 243 239 237 236 237
289 287 285 284 282 280 277 274 272 271 270 268 267 265 263 262 261 261 260 260 260 261 263 265 267 270 274 274 274 274 275 275 275 272 269 265 257 248 243 241 240 240
288 287 286 285 284 284 282 279 275 273 271 270 268 267 265 262 260 259 260 259 259 260 262 264 265 267 268 269 271 273 274 274 273 272 270 267 262 254 248 245 244 243
286 285 285 284 284 283 283 281 279 276 273 272 271 269 268 265 261 259 260 260 260 260 260 262 264 264 263 263 265 267 270 270 269 269 268 267 262 257 252 249 247 244
285 284 284 283 283 282 281 281 280 278 275 274 272 271 270 268 266 263 262 262 262 262 261 260 261 262 262 262 262 262 263 264 263 262 262 262 261 257 254 252 251 248
283 283 283 282 281 281 280 280 279 278 276 274 272 271 270 269 269 268 265 264 263 263 262 260 259 260 260 261 261 261 260 259 259 259 258 258 258 258 257 256 255 253
282 282 282 282 281 281 280 279 279 278 276 274 272 271 270 270 269 269 267 264 263 262 262 260 259 259 258 258 259 259 259 258 257 257 257 257 257 258 258 257 254 253
282 282 282 281 281 280 280 279 279 278 277 276 274 272 271 270 270 268 266 264 262 260 260 259 258 258 257 256 256 257 257 255 254 255 256 257 257 257 257 255 252 252